,,,PA_Meas_PMT16A,,PR_Meas_QMR101_102,,RH_Meas_QMH101,,SR_Meas_QMS101,,TA_Meas_QMH101,,GenWind,,GenWind,
date,time,status,PA,status,PR,status,RH,status,SR,status,TA,status,DirAvg,status,SpdAvg,
2010-11-06, 00:00:04,VALID,999.382,VALID,0,VALID,90.8764,VALID,0,VALID,24.0897,VALID,41,VALID,0.826172,
2010-11-06, 00:01:04,VALID,999.347,VALID,0,VALID,90.8993,VALID,0,VALID,24.0506,VALID,39,VALID,0.858594,
2010-11-06, 00:02:04,VALID,999.342,VALID,0,VALID,90.9451,VALID,0,VALID,24.0506,VALID,39,VALID,0.811719,
2010-11-06, 00:03:04,VALID,999.304,VALID,0,VALID,91.029,VALID,0,VALID,24.0311,VALID,39,VALID,0.766797,
2010-11-06, 00:04:04,VALID,999.307,VALID,0,VALID,91.1129,VALID,0,VALID,24.0116,VALID,39,VALID,0.869922,
2010-11-06, 00:05:04,VALID,999.301,VALID,0,VALID,91.174,VALID,0.112286,VALID,24.0116,VALID,39,VALID,0.789453,
2010-11-06, 00:06:04,VALID,999.28,VALID,0,VALID,91.2426,VALID,0,VALID,24.0116,VALID,39,VALID,0.802734,
2010-11-06, 00:07:04,VALID,999.234,VALID,0,VALID,91.296,VALID,0,VALID,23.9921,VALID,39,VALID,0.637109,
2010-11-06, 00:08:04,VALID,999.214,VALID,0,VALID,91.3647,VALID,0.112286,VALID,23.9726,VALID,39,VALID,0.798828,
2010-11-06, 00:09:04,VALID,999.141,VALID,0,VALID,91.3952,VALID,0,VALID,23.9726,VALID,39,VALID,0.701953,
2010-11-06, 00:10:04,VALID,999.152,VALID,0,VALID,91.5097,VALID,0,VALID,23.9726,VALID,39,VALID,0.870703,
2010-11-06, 00:11:04,VALID,999.098,VALID,0,VALID,91.6241,VALID,0,VALID,23.9726,VALID,39,VALID,0.835547,
2010-11-06, 00:12:04,VALID,999.117,VALID,0,VALID,91.7233,VALID,0,VALID,23.9726,VALID,39,VALID,0.764063,
2010-11-06, 00:13:04,VALID,999.064,VALID,0,VALID,91.7614,VALID,0,VALID,23.9531,VALID,39,VALID,0.7,
2010-11-06, 00:14:04,VALID,999.069,VALID,0,VALID,91.7614,VALID,0,VALID,23.9531,VALID,39,VALID,0.575391,
2010-11-06, 00:15:04,VALID,999.037,VALID,0,VALID,91.7309,VALID,0,VALID,23.914,VALID,39,VALID,0.4,
2010-11-06, 00:16:04,VALID,999.026,VALID,0,VALID,91.7538,VALID,0,VALID,23.914,VALID,45,VALID,0.398438,
2010-11-06, 00:17:04,VALID,999.008,VALID,0,VALID,91.7843,VALID,0,VALID,23.8945,VALID,45,VALID,0.292188,
2010-11-06, 00:18:04,VALID,999.023,VALID,0,VALID,91.8148,VALID,0,VALID,23.8945,VALID,45,VALID,0.439453,
2010-11-06, 00:19:04,VALID,998.987,VALID,0,VALID,91.8606,VALID,0,VALID,23.875,VALID,45,VALID,0.384375,
2010-11-06, 00:20:04,VALID,998.953,VALID,0,VALID,91.9217,VALID,0,VALID,23.8963,VALID,45,VALID,0.364062,
2010-11-06, 00:21:04,VALID,998.939,VALID,0,VALID,91.9827,VALID,0,VALID,23.8963,VALID,45,VALID,0.154297,
2010-11-06, 00:22:04,VALID,998.915,VALID,0,VALID,91.998,VALID,0,VALID,23.8573,VALID,45,VALID,0,
2010-11-06, 00:23:04,VALID,998.918,VALID,0,VALID,92.0209,VALID,0,VALID,23.8165,VALID,45,VALID,0,
2010-11-06, 00:24:04,VALID,998.89,VALID,0,VALID,92.0666,VALID,0,VALID,23.8165,VALID,45,VALID,0,
2010-11-06, 00:25:04,VALID,998.855,VALID,0,VALID,92.0971,VALID,0,VALID,23.8165,VALID,45,VALID,0.251563,
2010-11-06, 00:26:04,VALID,998.849,VALID,0,VALID,92.1658,VALID,0,VALID,23.797,VALID,45,VALID,0.435547,
2010-11-06, 00:27:04,VALID,998.824,VALID,0,VALID,92.1811,VALID,0,VALID,23.7775,VALID,45,VALID,0.213672,
2010-11-06, 00:28:04,VALID,998.834,VALID,0,VALID,92.1963,VALID,0,VALID,23.7988,VALID,45,VALID,0.236719,
2010-11-06, 00:29:04,VALID,998.812,VALID,0,VALID,92.2192,VALID,0,VALID,23.7775,VALID,45,VALID,0.180859,
2010-11-06, 00:30:04,VALID,998.786,VALID,0,VALID,92.2574,VALID,0,VALID,23.7775,VALID,45,VALID,0.244922,
2010-11-06, 00:31:04,VALID,998.82,VALID,0,VALID,92.2879,VALID,0,VALID,23.7775,VALID,45,VALID,0.234375,
2010-11-06, 00:32:04,VALID,998.771,VALID,0,VALID,92.3184,VALID,0,VALID,23.7775,VALID,45,VALID,0.346484,
2010-11-06, 00:33:04,VALID,998.745,VALID,0,VALID,92.326,VALID,0,VALID,23.7988,VALID,103,VALID,0.821484,
2010-11-06, 00:34:05,VALID,998.729,VALID,0,VALID,92.2955,VALID,0,VALID,23.7597,VALID,103,VALID,0.758203,
2010-11-06, 00:35:05,VALID,998.705,VALID,0,VALID,92.3108,VALID,0,VALID,23.7793,VALID,103,VALID,0.694141,
2010-11-06, 00:36:05,VALID,998.689,VALID,0,VALID,92.265,VALID,0,VALID,23.7775,VALID,103,VALID,0.685156,
2010-11-06, 00:37:05,VALID,998.68,VALID,0,VALID,92.1963,VALID,0,VALID,23.7988,VALID,103,VALID,0.484375,
2010-11-06, 00:38:05,VALID,998.642,VALID,0,VALID,92.1277,VALID,0,VALID,23.7988,VALID,103,VALID,0.376953,
2010-11-06, 00:39:05,VALID,998.659,VALID,0,VALID,92.0361,VALID,0,VALID,23.7988,VALID,103,VALID,0.0585938,
2010-11-06, 00:40:05,VALID,998.63,VALID,0,VALID,92.0056,VALID,0,VALID,23.7793,VALID,103,VALID,0.231641,
2010-11-06, 00:41:05,VALID,998.614,VALID,0,VALID,91.9598,VALID,0,VALID,23.7579,VALID,103,VALID,0.0984375,
2010-11-06, 00:42:05,VALID,998.625,VALID,0,VALID,91.914,VALID,0,VALID,23.7384,VALID,103,VALID,0.00664063,
2010-11-06, 00:43:05,VALID,998.657,VALID,0,VALID,91.8911,VALID,0,VALID,23.6994,VALID,103,VALID,0.282422,
2010-11-06, 00:44:05,VALID,998.637,VALID,0,VALID,91.8606,VALID,0,VALID,23.7012,VALID,103,VALID,0.312891,
2010-11-06, 00:45:05,VALID,998.621,VALID,0,VALID,91.8835,VALID,0,VALID,23.6799,VALID,103,VALID,0.221094,
2010-11-06, 00:46:05,VALID,998.576,VALID,0,VALID,91.914,VALID,0,VALID,23.6817,VALID,103,VALID,0.103516,
2010-11-06, 00:47:05,VALID,998.606,VALID,0,VALID,91.9598,VALID,0,VALID,23.6604,VALID,103,VALID,0.222656,
2010-11-06, 00:48:05,VALID,998.6,VALID,0,VALID,92.0209,VALID,0,VALID,23.6604,VALID,103,VALID,0.232422,
2010-11-06, 00:49:05,VALID,998.566,VALID,0,VALID,92.0819,VALID,0,VALID,23.6604,VALID,103,VALID,0.277734,
2010-11-06, 00:50:05,VALID,998.548,VALID,0,VALID,92.1277,VALID,0,VALID,23.6604,VALID,103,VALID,0.303125,
2010-11-06, 00:51:05,VALID,998.55,VALID,0,VALID,92.204,VALID,0,VALID,23.6817,VALID,103,VALID,0.268359,
2010-11-06, 00:52:05,VALID,998.536,VALID,0,VALID,92.2421,VALID,0,VALID,23.6604,VALID,103,VALID,0.194531,
2010-11-06, 00:53:05,VALID,998.52,VALID,0,VALID,92.2955,VALID,0,VALID,23.6214,VALID,103,VALID,0.164844,
2010-11-06, 00:54:05,VALID,998.504,VALID,0,VALID,92.2955,VALID,0,VALID,23.6427,VALID,103,VALID,0,
2010-11-06, 00:55:05,VALID,998.504,VALID,0,VALID,92.2955,VALID,0,VALID,23.5823,VALID,103,VALID,0,
2010-11-06, 00:56:05,VALID,998.474,VALID,0,VALID,92.326,VALID,0,VALID,23.6036,VALID,103,VALID,0.00273437,
2010-11-06, 00:57:05,VALID,998.461,VALID,0,VALID,92.3566,VALID,0,VALID,23.6232,VALID,103,VALID,0.204297,
2010-11-06, 00:58:05,VALID,998.46,VALID,0,VALID,92.3871,VALID,0,VALID,23.6019,VALID,103,VALID,0.162891,
2010-11-06, 00:59:05,VALID,998.476,VALID,0,VALID,92.4252,VALID,0,VALID,23.6214,VALID,103,VALID,0.0792969,
2010-11-06, 01:00:05,VALID,998.494,VALID,0,VALID,92.4405,VALID,0,VALID,23.6214,VALID,103,VALID,0,
2010-11-06, 01:01:05,VALID,998.471,VALID,0,VALID,92.4481,VALID,0,VALID,23.6232,VALID,103,VALID,0,
2010-11-06, 01:02:05,VALID,998.452,VALID,0,VALID,92.4328,VALID,0,VALID,23.6019,VALID,103,VALID,0,
2010-11-06, 01:03:05,VALID,998.433,VALID,0,VALID,92.4176,VALID,0,VALID,23.6019,VALID,103,VALID,0,
2010-11-06, 01:04:05,VALID,998.43,VALID,0,VALID,92.4023,VALID,0,VALID,23.6019,VALID,103,VALID,0,
2010-11-06, 01:05:05,VALID,998.435,VALID,0,VALID,92.3947,VALID,0,VALID,23.6036,VALID,103,VALID,0,
2010-11-06, 01:06:05,VALID,998.405,VALID,0,VALID,92.3566,VALID,0,VALID,23.5433,VALID,103,VALID,0.146875,
2010-11-06, 01:07:05,VALID,998.396,VALID,0,VALID,92.3413,VALID,0,VALID,23.5238,VALID,103,VALID,0,
2010-11-06, 01:08:05,VALID,998.383,VALID,0,VALID,92.3642,VALID,0,VALID,23.5451,VALID,103,VALID,0,
2010-11-06, 01:09:05,VALID,998.378,VALID,0,VALID,92.41,VALID,0,VALID,23.5238,VALID,103,VALID,0.0984375,
2010-11-06, 01:10:05,VALID,998.357,VALID,0,VALID,92.4176,VALID,0,VALID,23.5433,VALID,103,VALID,0.0914062,
2010-11-06, 01:11:05,VALID,998.343,VALID,0,VALID,92.4557,VALID,0,VALID,23.5433,VALID,103,VALID,0.205859,
2010-11-06, 01:12:05,VALID,998.363,VALID,0,VALID,92.4634,VALID,0,VALID,23.5433,VALID,103,VALID,0.228125,
2010-11-06, 01:13:05,VALID,998.361,VALID,0,VALID,92.471,VALID,0,VALID,23.5433,VALID,103,VALID,0.303125,
2010-11-06, 01:14:05,VALID,998.369,VALID,0,VALID,92.4557,VALID,0,VALID,23.5433,VALID,103,VALID,0.273047,
2010-11-06, 01:15:05,VALID,998.377,VALID,0,VALID,92.4481,VALID,0,VALID,23.5646,VALID,103,VALID,0.153125,
2010-11-06, 01:16:05,VALID,998.359,VALID,0,VALID,92.4405,VALID,0,VALID,23.5433,VALID,103,VALID,0.0453125,
2010-11-06, 01:17:05,VALID,998.383,VALID,0,VALID,92.4557,VALID,0,VALID,23.5646,VALID,103,VALID,0.00429688,
2010-11-06, 01:18:05,VALID,998.338,VALID,0,VALID,92.4634,VALID,0,VALID,23.5433,VALID,103,VALID,0.267188,
2010-11-06, 01:19:05,VALID,998.335,VALID,0,VALID,92.471,VALID,0,VALID,23.5841,VALID,103,VALID,0.40625,
2010-11-06, 01:20:05,VALID,998.29,VALID,0,VALID,92.4863,VALID,0,VALID,23.5823,VALID,103,VALID,0.473047,
2010-11-06, 01:21:05,VALID,998.285,VALID,0,VALID,92.5091,VALID,0,VALID,23.6232,VALID,103,VALID,0.577734,
2010-11-06, 01:22:05,VALID,998.291,VALID,0,VALID,92.5244,VALID,0,VALID,23.6604,VALID,103,VALID,0.769531,
2010-11-06, 01:23:05,VALID,998.276,VALID,0,VALID,92.5168,VALID,0,VALID,23.6799,VALID,103,VALID,0.910156,
2010-11-06, 01:24:05,VALID,998.229,VALID,0,VALID,92.4328,VALID,0,VALID,23.6994,VALID,103,VALID,0.889063,
2010-11-06, 01:25:05,VALID,998.24,VALID,0,VALID,92.3642,VALID,0,VALID,23.6994,VALID,103,VALID,0.979297,
2010-11-06, 01:26:05,VALID,998.222,VALID,0,VALID,92.2726,VALID,0,VALID,23.7402,VALID,103,VALID,1.06562,
2010-11-06, 01:27:05,VALID,998.224,VALID,0,VALID,92.1582,VALID,0,VALID,23.6994,VALID,103,VALID,0.868359,
2010-11-06, 01:28:05,VALID,998.202,VALID,0,VALID,92.0132,VALID,0,VALID,23.6604,VALID,111,VALID,0.8625,
2010-11-06, 01:29:05,VALID,998.219,VALID,0,VALID,91.9369,VALID,0,VALID,23.6622,VALID,119,VALID,0.839063,
2010-11-06, 01:30:05,VALID,998.205,VALID,0,VALID,91.8759,VALID,0,VALID,23.6427,VALID,127,VALID,0.694141,
2010-11-06, 01:31:05,VALID,998.233,VALID,0,VALID,91.8454,VALID,0,VALID,23.6232,VALID,127,VALID,0.437109,
2010-11-06, 01:32:05,VALID,998.226,VALID,0,VALID,91.853,VALID,0,VALID,23.6036,VALID,127,VALID,0.230469,
2010-11-06, 01:33:05,VALID,998.185,VALID,0,VALID,91.8606,VALID,0,VALID,23.5841,VALID,127,VALID,0,
2010-11-06, 01:34:05,VALID,998.153,VALID,0,VALID,91.9064,VALID,0,VALID,23.5646,VALID,127,VALID,0,
2010-11-06, 01:35:05,VALID,998.148,VALID,0,VALID,91.9674,VALID,0.112286,VALID,23.5433,VALID,127,VALID,0.168359,
2010-11-06, 01:36:05,VALID,998.124,VALID,0,VALID,92.0743,VALID,0,VALID,23.5628,VALID,127,VALID,0.0492188,
2010-11-06, 01:37:05,VALID,998.141,VALID,0,VALID,92.1734,VALID,0,VALID,23.5628,VALID,127,VALID,0.133594,
2010-11-06, 01:38:05,VALID,998.081,VALID,0,VALID,92.2421,VALID,0,VALID,23.5841,VALID,127,VALID,0.130078,
2010-11-06, 01:39:05,VALID,998.055,VALID,0,VALID,92.3184,VALID,0,VALID,23.5841,VALID,127,VALID,0.233984,
2010-11-06, 01:40:05,VALID,998.057,VALID,0,VALID,92.3794,VALID,0,VALID,23.5823,VALID,127,VALID,0.157813,
2010-11-06, 01:41:05,VALID,998.074,VALID,0,VALID,92.3718,VALID,0,VALID,23.5646,VALID,127,VALID,0.425391,
2010-11-06, 01:42:05,VALID,998.075,VALID,0,VALID,92.4176,VALID,0,VALID,23.5646,VALID,127,VALID,0.466016,
2010-11-06, 01:43:05,VALID,998.052,VALID,0,VALID,92.4405,VALID,0,VALID,23.5646,VALID,126,VALID,0.577344,
2010-11-06, 01:44:05,VALID,998.029,VALID,0,VALID,92.471,VALID,0,VALID,23.5646,VALID,93,VALID,0.7375,
2010-11-06, 01:45:05,VALID,998.051,VALID,0,VALID,92.4557,VALID,0,VALID,23.5451,VALID,93,VALID,0.732813,
2010-11-06, 01:46:05,VALID,998.023,VALID,0,VALID,92.4786,VALID,0,VALID,23.5646,VALID,75,VALID,0.777344,
2010-11-06, 01:47:05,VALID,998.017,VALID,0,VALID,92.4252,VALID,0,VALID,23.5043,VALID,56,VALID,0.803125,
2010-11-06, 01:48:05,VALID,998.015,VALID,0,VALID,92.3794,VALID,0,VALID,23.5061,VALID,54,VALID,0.805469,
2010-11-06, 01:49:05,VALID,998.026,VALID,0,VALID,92.3184,VALID,0,VALID,23.5061,VALID,53,VALID,0.634375,
2010-11-06, 01:50:05,VALID,998.028,VALID,0,VALID,92.2574,VALID,0,VALID,23.5061,VALID,53,VALID,0.823047,
2010-11-06, 01:51:05,VALID,998.016,VALID,0,VALID,92.1887,VALID,0,VALID,23.5061,VALID,53,VALID,0.751953,
2010-11-06, 01:52:05,VALID,997.999,VALID,0,VALID,92.0895,VALID,0,VALID,23.5256,VALID,53,VALID,0.666016,
2010-11-06, 01:53:05,VALID,998.003,VALID,0,VALID,92.0056,VALID,0,VALID,23.5451,VALID,53,VALID,0.599609,
2010-11-06, 01:54:05,VALID,997.987,VALID,0,VALID,91.9445,VALID,0,VALID,23.5238,VALID,54,VALID,0.528906,
2010-11-06, 01:55:05,VALID,998.022,VALID,0,VALID,91.8683,VALID,0,VALID,23.5238,VALID,70,VALID,0.792578,
2010-11-06, 01:56:05,VALID,998.044,VALID,0,VALID,91.8148,VALID,0,VALID,23.5451,VALID,76,VALID,0.855469,
2010-11-06, 01:57:05,VALID,998.075,VALID,0,VALID,91.792,VALID,0,VALID,23.5433,VALID,76,VALID,0.842578,
2010-11-06, 01:58:05,VALID,998.088,VALID,0,VALID,91.7385,VALID,0,VALID,23.5646,VALID,76,VALID,0.682422,
2010-11-06, 01:59:05,VALID,998.074,VALID,0,VALID,91.6851,VALID,0,VALID,23.5841,VALID,76,VALID,0.577344,
2010-11-06, 02:00:05,VALID,998.107,VALID,0,VALID,91.6546,VALID,0,VALID,23.5646,VALID,76,VALID,0.533203,
2010-11-06, 02:01:05,VALID,998.095,VALID,0,VALID,91.6394,VALID,0,VALID,23.5841,VALID,76,VALID,0.594141,
2010-11-06, 02:02:05,VALID,998.074,VALID,0,VALID,91.6241,VALID,0,VALID,23.6036,VALID,76,VALID,0.462109,
2010-11-06, 02:03:05,VALID,998.078,VALID,0,VALID,91.6394,VALID,0,VALID,23.5823,VALID,76,VALID,0.638672,
2010-11-06, 02:04:05,VALID,998.079,VALID,0,VALID,91.6394,VALID,0,VALID,23.6019,VALID,76,VALID,0.380859,
2010-11-06, 02:05:05,VALID,998.088,VALID,0,VALID,91.5936,VALID,0,VALID,23.6232,VALID,76,VALID,0.225,
2010-11-06, 02:06:05,VALID,998.071,VALID,0,VALID,91.5326,VALID,0,VALID,23.6232,VALID,76,VALID,0.236719,
2010-11-06, 02:07:05,VALID,998.092,VALID,0,VALID,91.502,VALID,0,VALID,23.6232,VALID,139,VALID,0.66875,
2010-11-06, 02:08:05,VALID,998.108,VALID,0,VALID,91.441,VALID,0,VALID,23.6232,VALID,138,VALID,0.547266,
2010-11-06, 02:09:05,VALID,998.09,VALID,0,VALID,91.3723,VALID,0,VALID,23.6427,VALID,138,VALID,0.378516,
2010-11-06, 02:10:05,VALID,998.085,VALID,0,VALID,91.2731,VALID,0,VALID,23.6214,VALID,138,VALID,0.337891,
2010-11-06, 02:11:05,VALID,998.081,VALID,0,VALID,91.174,VALID,0,VALID,23.6214,VALID,138,VALID,0.232422,
2010-11-06, 02:12:05,VALID,998.125,VALID,0,VALID,91.1053,VALID,0,VALID,23.6409,VALID,138,VALID,0.399609,
2010-11-06, 02:13:05,VALID,998.111,VALID,0,VALID,91.0214,VALID,0,VALID,23.6622,VALID,138,VALID,0.338672,
2010-11-06, 02:14:05,VALID,998.123,VALID,0,VALID,90.9298,VALID,0,VALID,23.6622,VALID,138,VALID,0.346875,
2010-11-06, 02:15:05,VALID,998.113,VALID,0,VALID,90.8611,VALID,0,VALID,23.6622,VALID,138,VALID,0.250391,
2010-11-06, 02:16:05,VALID,998.1,VALID,0,VALID,90.8611,VALID,0,VALID,23.6604,VALID,138,VALID,0.513281,
2010-11-06, 02:17:05,VALID,998.131,VALID,0,VALID,90.823,VALID,0,VALID,23.6604,VALID,138,VALID,0.376953,
2010-11-06, 02:18:05,VALID,998.085,VALID,0,VALID,90.8077,VALID,0,VALID,23.6604,VALID,138,VALID,0.517187,
2010-11-06, 02:19:05,VALID,998.065,VALID,0,VALID,90.8001,VALID,0,VALID,23.7012,VALID,138,VALID,0.416016,
2010-11-06, 02:20:05,VALID,998.081,VALID,0,VALID,90.7696,VALID,0,VALID,23.7189,VALID,146,VALID,0.600391,
2010-11-06, 02:21:05,VALID,998.061,VALID,0,VALID,90.6246,VALID,0,VALID,23.7189,VALID,157,VALID,0.691797,
2010-11-06, 02:22:05,VALID,998.039,VALID,0,VALID,90.5254,VALID,0,VALID,23.7793,VALID,165,VALID,1.02031,
2010-11-06, 02:23:05,VALID,998.059,VALID,0,VALID,90.3347,VALID,0,VALID,23.797,VALID,165,VALID,1.06484,
2010-11-06, 02:24:05,VALID,998.035,VALID,0,VALID,90.0906,VALID,0,VALID,23.8378,VALID,154,VALID,1.01133,
2010-11-06, 02:25:05,VALID,998.051,VALID,0,VALID,89.8998,VALID,0,VALID,23.8378,VALID,148,VALID,1.1625,
2010-11-06, 02:26:05,VALID,998.044,VALID,0,VALID,89.7549,VALID,0,VALID,23.8378,VALID,148,VALID,0.896484,
2010-11-06, 02:27:05,VALID,998.076,VALID,0,VALID,89.7396,VALID,0,VALID,23.8165,VALID,148,VALID,1.00586,
2010-11-06, 02:28:05,VALID,998.054,VALID,0,VALID,89.732,VALID,0,VALID,23.8165,VALID,157,VALID,1.12969,
2010-11-06, 02:29:05,VALID,998.037,VALID,0,VALID,89.7091,VALID,0,VALID,23.8555,VALID,157,VALID,0.895312,
2010-11-06, 02:30:05,VALID,998.043,VALID,0,VALID,89.6251,VALID,0,VALID,23.8768,VALID,157,VALID,0.553125,
2010-11-06, 02:31:05,VALID,997.978,VALID,0,VALID,89.5794,VALID,0,VALID,23.8555,VALID,156,VALID,0.746875,
2010-11-06, 02:32:05,VALID,997.971,VALID,0,VALID,89.6404,VALID,0,VALID,23.8573,VALID,156,VALID,0.437891,
2010-11-06, 02:33:05,VALID,997.972,VALID,0,VALID,89.6709,VALID,0,VALID,23.8165,VALID,149,VALID,0.448047,
2010-11-06, 02:34:05,VALID,997.981,VALID,0,VALID,89.6786,VALID,0,VALID,23.797,VALID,149,VALID,0.324609,
2010-11-06, 02:35:05,VALID,997.965,VALID,0,VALID,89.7549,VALID,0,VALID,23.7793,VALID,149,VALID,0.404687,
2010-11-06, 02:36:05,VALID,997.924,VALID,0,VALID,89.8159,VALID,0,VALID,23.7597,VALID,118,VALID,0.541406,
2010-11-06, 02:37:05,VALID,997.902,VALID,0,VALID,89.9227,VALID,0,VALID,23.7189,VALID,75,VALID,0.501562,
2010-11-06, 02:38:05,VALID,997.929,VALID,0,VALID,90.0143,VALID,0,VALID,23.7207,VALID,75,VALID,0.531641,
2010-11-06, 02:39:05,VALID,997.931,VALID,0,VALID,90.0677,VALID,0,VALID,23.6604,VALID,75,VALID,0.557813,
2010-11-06, 02:40:05,VALID,997.918,VALID,0,VALID,90.1821,VALID,0,VALID,23.6232,VALID,75,VALID,0.409766,
2010-11-06, 02:41:05,VALID,997.912,VALID,0,VALID,90.3271,VALID,0,VALID,23.6036,VALID,75,VALID,0.260938,
2010-11-06, 02:42:05,VALID,997.923,VALID,0,VALID,90.4186,VALID,0,VALID,23.5646,VALID,75,VALID,0.247266,
2010-11-06, 02:43:05,VALID,997.896,VALID,0,VALID,90.5712,VALID,0,VALID,23.5256,VALID,75,VALID,0.380078,
2010-11-06, 02:44:05,VALID,997.915,VALID,0,VALID,90.7925,VALID,0,VALID,23.4848,VALID,75,VALID,0.407031,
2010-11-06, 02:45:05,VALID,997.896,VALID,0,VALID,90.9374,VALID,0,VALID,23.4866,VALID,75,VALID,0.434766,
2010-11-06, 02:46:05,VALID,997.894,VALID,0,VALID,91.0443,VALID,0,VALID,23.4671,VALID,75,VALID,0.495703,
2010-11-06, 02:47:05,VALID,997.887,VALID,0,VALID,91.1129,VALID,0,VALID,23.4475,VALID,75,VALID,0.525781,
2010-11-06, 02:48:05,VALID,997.888,VALID,0,VALID,91.1816,VALID,0,VALID,23.4067,VALID,65,VALID,0.592969,
2010-11-06, 02:49:05,VALID,997.893,VALID,0,VALID,91.3037,VALID,0,VALID,23.428,VALID,65,VALID,0.563281,
2010-11-06, 02:50:05,VALID,997.879,VALID,0,VALID,91.38,VALID,0,VALID,23.428,VALID,65,VALID,0.703125,
2010-11-06, 02:51:05,VALID,997.89,VALID,0,VALID,91.502,VALID,0,VALID,23.4263,VALID,65,VALID,0.784375,
2010-11-06, 02:52:05,VALID,997.88,VALID,0,VALID,91.5402,VALID,0,VALID,23.4263,VALID,65,VALID,0.703125,
2010-11-06, 02:53:05,VALID,997.852,VALID,0,VALID,91.5326,VALID,0,VALID,23.4475,VALID,65,VALID,0.660156,
2010-11-06, 02:54:05,VALID,997.849,VALID,0,VALID,91.5249,VALID,0,VALID,23.4085,VALID,65,VALID,0.664844,
2010-11-06, 02:55:05,VALID,997.874,VALID,0,VALID,91.5249,VALID,0,VALID,23.3677,VALID,63,VALID,0.702344,
2010-11-06, 02:56:05,VALID,997.836,VALID,0,VALID,91.5478,VALID,0,VALID,23.389,VALID,48,VALID,0.770312,
2010-11-06, 02:57:05,VALID,997.834,VALID,0,VALID,91.647,VALID,0,VALID,23.3695,VALID,42,VALID,0.770703,
2010-11-06, 02:58:05,VALID,997.815,VALID,0,VALID,91.7004,VALID,0,VALID,23.35,VALID,42,VALID,0.667188,
2010-11-06, 02:59:05,VALID,997.825,VALID,0,VALID,91.708,VALID,0,VALID,23.311,VALID,42,VALID,0.752344,
2010-11-06, 03:00:05,VALID,997.848,VALID,0,VALID,91.7385,VALID,0,VALID,23.311,VALID,42,VALID,0.652734,
2010-11-06, 03:01:05,VALID,997.839,VALID,0,VALID,91.792,VALID,0,VALID,23.2702,VALID,42,VALID,0.672266,
2010-11-06, 03:02:05,VALID,997.852,VALID,0,VALID,91.8072,VALID,0,VALID,23.2507,VALID,42,VALID,0.667578,
2010-11-06, 03:03:05,VALID,997.816,VALID,0,VALID,91.8377,VALID,0,VALID,23.2312,VALID,42,VALID,0.544922,
2010-11-06, 03:04:05,VALID,997.826,VALID,0,VALID,91.853,VALID,0,VALID,23.2117,VALID,42,VALID,0.305078,
2010-11-06, 03:05:05,VALID,997.817,VALID,0,VALID,91.8835,VALID,0,VALID,23.1921,VALID,42,VALID,0.373437,
2010-11-06, 03:06:05,VALID,997.815,VALID,0,VALID,91.8988,VALID,0,VALID,23.1726,VALID,42,VALID,0.285156,
2010-11-06, 03:07:05,VALID,997.809,VALID,0,VALID,91.9445,VALID,0,VALID,23.1726,VALID,42,VALID,0.35,
2010-11-06, 03:08:05,VALID,997.804,VALID,0,VALID,92.0132,VALID,0,VALID,23.1939,VALID,42,VALID,0.367188,
2010-11-06, 03:09:05,VALID,997.799,VALID,0,VALID,92.1048,VALID,0,VALID,23.1531,VALID,42,VALID,0.339453,
2010-11-06, 03:10:05,VALID,997.775,VALID,0,VALID,92.1582,VALID,0,VALID,23.1531,VALID,42,VALID,0.257422,
2010-11-06, 03:11:05,VALID,997.787,VALID,0,VALID,92.1811,VALID,0.112286,VALID,23.1531,VALID,42,VALID,0.238281,
2010-11-06, 03:12:05,VALID,997.804,VALID,0,VALID,92.2497,VALID,0,VALID,23.1531,VALID,42,VALID,0.198437,
2010-11-06, 03:13:05,VALID,997.798,VALID,0,VALID,92.3031,VALID,0,VALID,23.1549,VALID,42,VALID,0.208984,
2010-11-06, 03:14:05,VALID,997.821,VALID,0,VALID,92.3337,VALID,0,VALID,23.1141,VALID,42,VALID,0.205078,
2010-11-06, 03:15:05,VALID,997.799,VALID,0,VALID,92.3718,VALID,0,VALID,23.1141,VALID,42,VALID,0.370703,
2010-11-06, 03:16:05,VALID,997.806,VALID,0,VALID,92.4252,VALID,0,VALID,23.1336,VALID,42,VALID,0.434375,
2010-11-06, 03:17:04,VALID,997.808,VALID,0,VALID,92.471,VALID,0.112286,VALID,23.1336,VALID,42,VALID,0.365234,
2010-11-06, 03:18:04,VALID,997.817,VALID,0,VALID,92.5244,VALID,0,VALID,23.1744,VALID,42,VALID,0.199609,
2010-11-06, 03:19:04,VALID,997.822,VALID,0,VALID,92.5091,VALID,0,VALID,23.1336,VALID,42,VALID,0.00273437,
2010-11-06, 03:20:04,VALID,997.832,VALID,0,VALID,92.5015,VALID,0,VALID,23.1141,VALID,42,VALID,0.154687,
2010-11-06, 03:21:04,VALID,997.868,VALID,0,VALID,92.5091,VALID,0,VALID,23.1354,VALID,42,VALID,0.272266,
2010-11-06, 03:22:04,VALID,997.86,VALID,0,VALID,92.532,VALID,0,VALID,23.1336,VALID,42,VALID,0.3125,
2010-11-06, 03:23:04,VALID,997.865,VALID,0,VALID,92.5702,VALID,0,VALID,23.1744,VALID,42,VALID,0.343359,
2010-11-06, 03:24:04,VALID,997.887,VALID,0,VALID,92.5931,VALID,0,VALID,23.1921,VALID,42,VALID,0.390234,
2010-11-06, 03:25:04,VALID,997.91,VALID,0,VALID,92.6236,VALID,0,VALID,23.2329,VALID,42,VALID,0.386719,
2010-11-06, 03:26:04,VALID,997.902,VALID,0,VALID,92.6236,VALID,0,VALID,23.2329,VALID,42,VALID,0.366016,
2010-11-06, 03:27:04,VALID,997.926,VALID,0,VALID,92.6388,VALID,0,VALID,23.2524,VALID,42,VALID,0.317187,
2010-11-06, 03:28:04,VALID,997.929,VALID,0,VALID,92.6007,VALID,0,VALID,23.2507,VALID,42,VALID,0.253125,
2010-11-06, 03:29:04,VALID,997.924,VALID,0,VALID,92.5778,VALID,0,VALID,23.2524,VALID,42,VALID,0.230859,
2010-11-06, 03:30:04,VALID,997.949,VALID,0,VALID,92.532,VALID,0.112286,VALID,23.2117,VALID,42,VALID,0,
2010-11-06, 03:31:04,VALID,997.953,VALID,0,VALID,92.4481,VALID,0,VALID,23.1726,VALID,42,VALID,0,
2010-11-06, 03:32:04,VALID,997.962,VALID,0,VALID,92.41,VALID,0,VALID,23.1744,VALID,42,VALID,0,
2010-11-06, 03:33:04,VALID,997.998,VALID,0,VALID,92.3794,VALID,0,VALID,23.1549,VALID,42,VALID,0,
2010-11-06, 03:34:04,VALID,997.995,VALID,0,VALID,92.3718,VALID,0,VALID,23.1531,VALID,42,VALID,0,
2010-11-06, 03:35:04,VALID,998,VALID,0,VALID,92.4023,VALID,0,VALID,23.1744,VALID,42,VALID,0,
2010-11-06, 03:36:04,VALID,998.012,VALID,0,VALID,92.3871,VALID,0,VALID,23.1549,VALID,42,VALID,0,
2010-11-06, 03:37:04,VALID,997.997,VALID,0,VALID,92.4023,VALID,0,VALID,23.1141,VALID,42,VALID,0,
2010-11-06, 03:38:04,VALID,998.012,VALID,0,VALID,92.3947,VALID,0,VALID,23.1336,VALID,42,VALID,0,
2010-11-06, 03:39:04,VALID,998.004,VALID,0,VALID,92.41,VALID,0,VALID,23.1354,VALID,42,VALID,0,
2010-11-06, 03:40:04,VALID,998.032,VALID,0,VALID,92.4481,VALID,0,VALID,23.0946,VALID,42,VALID,0,
2010-11-06, 03:41:04,VALID,998.032,VALID,0,VALID,92.471,VALID,0,VALID,23.0751,VALID,42,VALID,0,
2010-11-06, 03:42:04,VALID,998.035,VALID,0,VALID,92.4481,VALID,0,VALID,23.0556,VALID,42,VALID,0,
2010-11-06, 03:43:04,VALID,998.055,VALID,0,VALID,92.4786,VALID,0,VALID,23.0361,VALID,42,VALID,0,
2010-11-06, 03:44:04,VALID,998.065,VALID,0,VALID,92.5168,VALID,0,VALID,23.0361,VALID,42,VALID,0,
2010-11-06, 03:45:04,VALID,998.121,VALID,0,VALID,92.5473,VALID,0,VALID,23.0361,VALID,42,VALID,0,
2010-11-06, 03:46:04,VALID,998.12,VALID,0,VALID,92.6312,VALID,0,VALID,23.0556,VALID,42,VALID,0,
2010-11-06, 03:47:04,VALID,998.141,VALID,0,VALID,92.6617,VALID,0,VALID,23.0751,VALID,42,VALID,0.515625,